Regional Weather Roundup
Issued by NWS Sioux Falls, SD

Home | Current Version | Previous Version | Graphics & Text | Print | Product List | Glossary Off
Versions: 1 2 3 4 5 6 7 8 9 10 11 12 13 14 15 16 17 18 19 20 21 22 23 24 25 26 27 28 29 30 31 32 33 34 35 36 37 38 39 40 41 42 43 44 45 46 47 48 49 50

000
ASUS43 KFSD 011202
RWRFSD

WEATHER ROUNDUP FOR SE SOUTH DAKOTA/SW MINNESOTA/NW IOWA
NATIONAL WEATHER SERVICE SIOUX FALLS SD
700 AM CDT SUN MAY 01 2016

NOTE: "FAIR" INDICATES FEW OR NO CLOUDS BELOW 12,000 FEET WITH NO
SIGNIFICANT WEATHER AND OR OBSTRUCTIONS TO VISIBILITY.


SDZ038>040-050-052>070-011300-
SOUTHEAST SOUTH DAKOTA

CITY           SKY/WX    TMP DP  RH WIND       PRES   REMARKS
BROOKINGS      CLOUDY    34  29  82 NE9       30.16R WCI  27
CHAMBERLAIN    NOT AVBL
HURON          CLOUDY    34  30  85 N8        30.20R WCI  27
6HR MIN TEMP:  33; 6HR MAX TEMP:  44;

MADISON        FAIR      36  36 100 NE14      30.15R
MITCHELL       CLOUDY    38  34  85 N10       30.18R
6HR MIN TEMP:  38; 6HR MAX TEMP:  44; 6HR PCP: TRACE;

SIOUX FALLS    LGT RAIN  41  37  86 N12       30.13R
6HR MIN TEMP:  41; 6HR MAX TEMP:  44; 6HR PCP:  0.05;

WINNER         FAIR      36  32  85 N7        30.21R
YANKTON        CLOUDY    43  39  87 N14G20    30.11R
$$

MNZ071-072-080-081-089-090-097-098-011300-
SOUTHWEST MINNESOTA

CITY           SKY/WX    TMP DP  RH WIND       PRES   REMARKS
FAIRMONT       CLOUDY    43  34  70 N13       30.09R
JACKSON        DRIZZLE   41  37  87 N14       30.10S
LUVERNE        LGT RAIN  39  36  87 NE12      30.12R
MARSHALL       CLOUDY    36  32  85 N7        30.17R
6HR MIN TEMP:  36; 6HR MAX TEMP:  45;

MONTEVIDEO     CLOUDY    36  30  80 NE8       30.21R
REDWOOD FALLS  CLOUDY    39  30  70 N6        30.16R
TRACY          CLOUDY    39  34  84 N8        30.16R
WINDOM         DRIZZLE   39  36  87 N13       30.12R
WORTHINGTON    LGT RAIN  39  37  92 N16       30.12R
$$

IAZ001>003-012>014-020>022-031-032-NEZ013-014-SDZ071-011300-
NORTHWEST IOWA

CITY           SKY/WX    TMP DP  RH WIND       PRES   REMARKS
DENISON        CLOUDY    43  41  93 NE14      29.97R
ESTHERVILLE    CLOUDY    41  40  96 N14       30.08R
SIOUX CITY     LGT RAIN  44  40  85 NE13      30.05R
6HR MIN TEMP:  44; 6HR MAX TEMP:  45; 6HR PCP:  0.26;

SPENCER        CLOUDY    42  40  92 NE17      30.07R FOG
6HR MIN TEMP:  42; 6HR MAX TEMP:  42; 6HR PCP: TRACE;

STORM LAKE     CLOUDY    41  41 100 NE24G31   30.03R FOG
$$

ABBREVIATIONS USED IN REMARKS
   TC - TEMPERATURE IN CELSIUS
  WCI - WIND CHILL INDEX
   HX - HEAT INDEX
  VSB - VISIBILITY





USA.gov is the U.S. government's official web portal to all federal, state and local government web resources and services.